Live Position
Loading 3D Globe...
About Beidou DW 43
Group: 3 satellites
Description loading...
Upcoming Passes
Passes for default location (London). Set your location on the main map for personalized predictions.
Altitude History
Loading altitude history...
No altitude history available
Two-Line Element Set
1 43707U 18093B 26119.84730682 .00000044 00000-0 00000+0 0 9996
2 43707 54.1675 183.9284 0007122 324.7163 35.3161 1.86226721 50632
Epoch: Apr 29, 2026 •
Age: 58 hours
Current Status
Altitude 21544.6 km
Velocity 3.78 km/s
Sub-Earth Point -3.26°S,
48.92°E
Launch Date Nov 18, 2018
Age 7.4 years
Type navigation
Technical Details
Classification Payload
Mass 1014.00 kg
Dry Mass 850.00 kg
Total Mass 1014.00 kg
Length 2.20 m
Diameter 1.70 m
Span 10.00 m
Shape Box + 2 Pan
Manufacturer CAST
Bus Type BD-3M/SAR
Phase Status In Orbit
Owner/State CNSA/CN
Most Searched
Loading...